EUTELSAT 70B

Last updated on Sat Aug 15 2026 00:02:59 GMT+0000 (Coordinated Universal Time)

1 39020U 12069A 26226.58192279 -.00000059 00000+0 00000+0 0 9996 2 39020 0.0642 1.4259 0003563 142.4238 99.1305 1.00272088 50099
UTC large
Height (km)
Speed (km/s)
/
Latitude / Longitude
Inclination (degrees)
Orbital Period (minutes)
Azimuth
Elevation
Range (km)
Doppler Factor

Next 0 passes for location: London (51.5072 / 0.1276)

No passes found over London.
EUTELSAT 70B